Live-Position
3D-Globus wird geladen...
Über Starlink 3591
Group: 3 satellites
Beschreibung wird geladen...
Nächste Überflüge
Passes for default location (London). Set your location on the main map for personalized predictions.
Höhenverlauf
Loading altitude history...
No altitude history available
Zweizeiliger Elementsatz
1 51870U 22022U 26127.18167316 -.00000002 00000-0 17968-4 0 9998
2 51870 53.2162 106.5403 0001202 67.6793 292.4327 15.08835160231994
Epoch: 7. Mai 2026 •
Age: 6 hours
Aktueller Status
Höhe 554.3 km
Geschwindigkeit 7.58 km/s
Subsatellitenpunkt -41.34°S,
51.47°W
Startdatum 3. März 2022
Alter 4.1 years
Typ internet
Startgruppe
Falcon 9 •
Group 4-9 •
45 satellites
Starlink 3542
51852
Starlink 3541 51854
Starlink 3545 51855
Starlink 3568 51856
Starlink 3571 51857
Starlink 3563 51858
Starlink 3560 51859
Starlink 3559 51860
Starlink 3562 51861
Starlink 3508 51862
Starlink 3555 51863
Starlink 3548 51864
Starlink 3503 51865
Starlink 3553 51866
Starlink 3590 51867
Starlink 3578 51868
Starlink 3588 51869
Starlink 3567 51871
Starlink 3554 51872
Starlink 3582 51873
...and 24 more
Technische Details
Klassifizierung Payload
Masse 297.00 kg
Trockenmasse 275.00 kg
Gesamtmasse 297.00 kg
Länge 0.20 m
Durchmesser 2.80 m
Spannweite 9.00 m
Form Box + pan
Hersteller SPXS
Bus-Typ Starlink
Phasenstatus In Orbit
Besitzer/Staat SPXS/US
Most Searched
Loading...